Location: Unspecified
(51.6250°N, 0.8230°E)
Time: 10:32:41
(UTC+01:00)

Okean 3 - Pass Details

Date: 07 August 2020
Orbit: 576 x 601 km, 82.5° (Epoch: 23 September)

Event Time Altitude Azimuth Distance (km) Brightness Sun altitude
Rises 21:58:28 0° 3° (N) 2,846 7.6 -11.4°
Reaches altitude 10° 22:01:52 10° 32° (NNE) 1,943 6.3 -11.7°
Maximum altitude 22:03:52 13° 60° (ENE) 1,756 5.7 -12.0°
Drops below altitude 10° 22:05:52 10° 88° (E) 1,942 5.7 -12.2°
Enters shadow 22:06:15 - 92° (E) 2,018 5.8 -12.2°
